Location: Beaver Brook Station
(42.3793°N, 71.2203°W)
Time: 01:58:02
(UTC+00:00)

Cosmos 2058 - Pass Details

Date: 29 October 2020
Orbit: 562 x 583 km, 82.5° (Epoch: 05 December)

Event Time Altitude Azimuth Distance (km) Brightness Sun altitude
Rises 22:18:57 0° 5° (N) 2,764 6.2 -7.5°
Reaches altitude 10° 22:21:31 10° 21° (NNE) 1,863 5.2 -8.0°
Maximum altitude 22:24:46 22° 73° (ENE) 1,249 4.0 -8.6°
Drops below altitude 10° 22:28:00 10° 126° (SE) 1,855 5.1 -9.2°
Sets 22:30:33 0° 141° (SE) 2,749 6.1 -9.6°
